TimeEST,TemperatureF,Dew PointF,Humidity,Sea Level PressureIn,VisibilityMPH,Wind Direction,Wind SpeedMPH,Gust SpeedMPH,PrecipitationIn,Events,Conditions,WindDirDegrees,DateUTC
12:15 AM,29.8,23.9,79,30.33,10.0,ENE,4.6,-,N/A,,Clear,60,2013-11-20 05:15:00
12:34 AM,29.8,24.6,81,30.32,10.0,East,4.6,-,N/A,,Clear,80,2013-11-20 05:34:00
12:54 AM,29.8,24.4,80,30.32,10.0,ENE,5.8,-,N/A,,Clear,60,2013-11-20 05:54:00
1:15 AM,29.8,24.4,80,30.32,10.0,ENE,3.5,-,N/A,,Clear,60,2013-11-20 06:15:00
1:34 AM,29.8,24.8,81,30.32,10.0,Calm,Calm,-,N/A,,Clear,0,2013-11-20 06:34:00
1:54 AM,29.8,25.3,83,30.31,10.0,ENE,4.6,-,N/A,,Clear,60,2013-11-20 06:54:00
2:15 AM,29.8,24.6,81,30.32,10.0,Calm,Calm,-,N/A,,Clear,0,2013-11-20 07:15:00
2:34 AM,29.8,25.3,83,30.32,10.0,Calm,Calm,-,N/A,,Clear,0,2013-11-20 07:34:00
2:54 AM,31.3,25.0,77,30.34,10.0,South,3.5,-,N/A,,Clear,190,2013-11-20 07:54:00
3:15 AM,32.7,24.8,73,30.34,10.0,SSW,3.5,-,N/A,,Clear,200,2013-11-20 08:15:00
3:34 AM,34.5,26.1,71,30.33,10.0,South,3.5,-,N/A,,Clear,180,2013-11-20 08:34:00
3:54 AM,34.5,25.9,71,30.34,10.0,Calm,Calm,-,N/A,,Clear,0,2013-11-20 08:54:00
4:15 AM,33.6,24.8,70,30.33,10.0,Calm,Calm,-,N/A,,Clear,0,2013-11-20 09:15:00
4:34 AM,29.8,24.1,79,30.34,10.0,Calm,Calm,-,N/A,,Clear,0,2013-11-20 09:34:00
4:54 AM,29.8,25.0,82,30.34,10.0,Calm,Calm,-,N/A,,Clear,0,2013-11-20 09:54:00
5:14 AM,30.2,24.6,80,30.33,10.0,SSE,5.8,-,N/A,,Clear,150,2013-11-20 10:14:00
5:34 AM,32.2,24.4,73,30.33,10.0,Calm,Calm,-,N/A,,Clear,0,2013-11-20 10:34:00
5:55 AM,32.0,24.8,75,30.33,10.0,Calm,Calm,-,N/A,,Clear,0,2013-11-20 10:55:00
6:14 AM,33.1,25.2,73,30.33,10.0,Calm,Calm,-,N/A,,Clear,0,2013-11-20 11:14:00
6:34 AM,34.7,25.9,70,30.33,10.0,SSE,3.5,-,N/A,,Clear,150,2013-11-20 11:34:00
6:55 AM,31.3,25.0,77,30.33,10.0,Calm,Calm,-,N/A,,Clear,0,2013-11-20 11:55:00
7:14 AM,30.6,25.0,80,30.33,10.0,Calm,Calm,-,N/A,,Clear,0,2013-11-20 12:14:00
7:34 AM,-9999,-9999,N/A,-9999,-9999.0,North,-9999.0,-,N/A,,Unknown,0,2013-11-20 12:34:00
7:55 AM,30.2,24.8,80,30.33,1.2,North,-9999.0,-,N/A,Snow,Light Snow,0,2013-11-20 12:55:00
8:15 AM,-9999,-9999,N/A,-9999,-9999.0,North,-9999.0,-,N/A,,Unknown,0,2013-11-20 13:15:00
8:35 AM,32.4,25.3,75,30.32,-9999.0,Calm,Calm,-,N/A,,Clear,0,2013-11-20 13:35:00
8:55 AM,31.8,25.0,76,30.32,10.0,Calm,Calm,-,N/A,,Clear,0,2013-11-20 13:55:00
9:15 AM,33.3,26.4,76,30.32,10.0,East,3.5,-,N/A,,Clear,90,2013-11-20 14:15:00
9:35 AM,34.7,25.3,69,30.32,10.0,SE,3.5,-,N/A,,Clear,140,2013-11-20 14:35:00
9:55 AM,35.6,25.5,67,30.32,10.0,Calm,Calm,-,N/A,,Clear,0,2013-11-20 14:55:00
10:15 AM,35.8,24.8,64,30.32,10.0,ESE,3.5,-,N/A,,Clear,110,2013-11-20 15:15:00
10:35 AM,35.8,25.3,66,30.32,10.0,Calm,Calm,-,N/A,,Clear,0,2013-11-20 15:35:00
10:54 AM,36.9,24.1,60,30.31,10.0,SSE,4.6,-,N/A,,Clear,150,2013-11-20 15:54:00
11:15 AM,38.3,23.5,55,30.30,10.0,SSE,6.9,-,N/A,,Clear,150,2013-11-20 16:15:00
11:35 AM,38.5,23.4,55,30.30,10.0,SE,5.8,-,N/A,,Clear,130,2013-11-20 16:35:00
11:54 AM,39.6,23.9,54,30.30,10.0,SSE,6.9,-,N/A,,Clear,150,2013-11-20 16:54:00
12:15 PM,40.8,24.8,53,30.29,10.0,SSE,5.8,-,N/A,,Clear,150,2013-11-20 17:15:00
12:35 PM,41.5,24.4,51,30.28,10.0,SE,4.6,-,N/A,,Clear,130,2013-11-20 17:35:00
12:55 PM,41.5,24.1,50,30.28,10.0,SE,8.1,-,N/A,,Clear,140,2013-11-20 17:55:00
1:15 PM,41.4,24.8,52,30.28,10.0,SSE,6.9,-,N/A,,Clear,160,2013-11-20 18:15:00
1:35 PM,41.7,25.3,52,30.27,10.0,SSE,6.9,-,N/A,,Clear,150,2013-11-20 18:35:00
1:55 PM,41.5,24.6,51,30.27,10.0,South,4.6,-,N/A,,Clear,170,2013-11-20 18:55:00
2:15 PM,41.7,25.5,53,30.26,10.0,SSE,5.8,-,N/A,,Clear,150,2013-11-20 19:15:00
2:35 PM,41.7,24.1,50,30.26,10.0,SE,8.1,-,N/A,,Clear,140,2013-11-20 19:35:00
2:55 PM,41.5,25.7,53,30.25,10.0,SE,4.6,-,N/A,,Clear,130,2013-11-20 19:55:00
3:15 PM,42.3,24.8,50,30.25,10.0,SE,6.9,-,N/A,,Clear,130,2013-11-20 20:15:00
3:35 PM,42.3,23.9,48,30.24,10.0,ESE,4.6,-,N/A,,Clear,110,2013-11-20 20:35:00
3:55 PM,42.3,23.9,48,30.24,10.0,SE,3.5,-,N/A,,Clear,130,2013-11-20 20:55:00
4:15 PM,41.0,23.9,51,30.24,10.0,SE,5.8,-,N/A,,Clear,140,2013-11-20 21:15:00
4:35 PM,40.5,24.6,53,30.24,10.0,Calm,Calm,-,N/A,,Clear,0,2013-11-20 21:35:00
4:55 PM,39.0,24.6,56,30.24,10.0,ENE,4.6,-,N/A,,Clear,70,2013-11-20 21:55:00
5:15 PM,38.3,25.7,61,30.24,10.0,East,4.6,-,N/A,,Clear,80,2013-11-20 22:15:00
5:35 PM,35.8,26.6,69,30.24,10.0,East,5.8,-,N/A,,Clear,80,2013-11-20 22:35:00
5:55 PM,37.2,26.6,65,30.23,10.0,ENE,5.8,-,N/A,,Clear,70,2013-11-20 22:55:00
6:15 PM,35.8,27.3,71,30.22,10.0,East,6.9,-,N/A,,Clear,80,2013-11-20 23:15:00
6:35 PM,36.0,26.4,68,30.22,10.0,ENE,6.9,-,N/A,,Clear,70,2013-11-20 23:35:00
6:55 PM,35.8,26.4,69,30.23,10.0,ENE,5.8,-,N/A,,Clear,70,2013-11-20 23:55:00
7:15 PM,35.8,26.4,69,30.22,10.0,East,5.8,-,N/A,,Clear,80,2013-11-21 00:15:00
7:35 PM,36.0,26.2,68,30.22,10.0,East,4.6,-,N/A,,Clear,80,2013-11-21 00:35:00
7:55 PM,36.0,26.1,67,30.22,10.0,ENE,6.9,-,N/A,,Clear,70,2013-11-21 00:55:00
8:15 PM,35.8,26.6,69,30.22,10.0,East,6.9,-,N/A,,Clear,80,2013-11-21 01:15:00
8:34 PM,36.0,26.6,69,30.21,10.0,ENE,5.8,-,N/A,,Clear,70,2013-11-21 01:34:00
8:55 PM,35.8,27.1,71,30.22,10.0,East,4.6,-,N/A,,Clear,80,2013-11-21 01:55:00
9:15 PM,35.8,28.0,73,30.22,10.0,ENE,4.6,-,N/A,,Clear,70,2013-11-21 02:15:00
9:34 PM,35.8,28.6,75,30.21,10.0,ENE,5.8,-,N/A,,Clear,60,2013-11-21 02:34:00
9:55 PM,35.8,28.8,76,30.21,10.0,ENE,4.6,-,N/A,,Clear,60,2013-11-21 02:55:00
10:15 PM,35.2,29.1,78,30.20,10.0,ENE,5.8,-,N/A,,Clear,70,2013-11-21 03:15:00
10:34 PM,34.7,29.1,80,30.20,10.0,ENE,5.8,-,N/A,,Clear,70,2013-11-21 03:34:00
10:55 PM,35.8,29.8,79,30.19,10.0,ENE,4.6,-,N/A,,Clear,70,2013-11-21 03:55:00
11:15 PM,35.8,30.0,80,30.19,10.0,ENE,5.8,-,N/A,,Scattered Clouds,70,2013-11-21 04:15:00
11:34 PM,35.8,29.8,79,30.20,10.0,Calm,Calm,-,N/A,,Scattered Clouds,0,2013-11-21 04:34:00
11:55 PM,35.8,29.1,77,30.20,10.0,East,3.5,-,N/A,,Mostly Cloudy,80,2013-11-21 04:55:00